Regional Weather Roundup
Issued by NWS

Home | Current Version | Previous Version | Graphics & Text | Print | Product List | Glossary On
Versions: 1 2 3 4 5 6 7 8 9 10 11 12 13 14 15 16 17 18 19 20 21 22 23 24 25 26 27 28 29 30 31 32 33 34 35 36 37 38 39 40 41 42 43 44 45 46 47 48 49 50
000
ASUS43 KMPX 140310
RWRMN
WEATHER ROUNDUP FOR MINNESOTA
NATIONAL WEATHER SERVICE TWIN CITIES/CHANHASSEN MN
900 PM CST WED DEC 13 2017


NOTE: "FAIR" INDICATES FEW OR NO CLOUDS BELOW 12,000 FEET WITH NO
SIGNIFICANT WEATHER AND/OR OBSTRUCTIONS TO VISIBILITY. N/A MEANS
CURRENT SKY AND/OR WEATHER CONDITIONS ARE NOT AVAILABLE.

MNZ060>063-068>070-140400-
   Twin Cities Metro

CITY           SKY/WX    TMP DP  RH WIND       PRES   REMARKS
TWIN CITIES    PTCLDY    20  15  81 N9        29.91S WCI   9
ST PAUL        CLEAR     18  13  80 NW7       29.94R WCI   9
CRYSTAL        CLEAR     18  10  71 N6        29.91R WCI  10
BLAINE         CLEAR     19  16  86 NW7       29.91R WCI  10
LAKEVILLE      CLEAR     19  16  86 N7        29.90S WCI  10
EDEN PRAIRIE   CLEAR     20  13  74 N8        29.89F WCI  10
SOUTH ST PAUL  CLEAR     21  15  78 N7        29.92S WCI  12
LAKE ELMO      FAIR      18  14  86 CALM      29.93R
$$
MNZ001>005-007-008-013>017-022>024-027-028-140400-
   Northwest Minnesota

CITY           SKY/WX    TMP DP  RH WIND       PRES   REMARKS
BEMIDJI        FLURRIES  13   9  84 N5        29.92R WCI   5
HALLOCK        CLOUDY    18  14  86 NE6       29.99S WCI   9
ROSEAU         CLOUDY    12   9  85 NW5       29.96R WCI   4
WARROAD        CLOUDY     3   0  85 W6        29.96R WCI  -8
THIEF RVR FALL FLURRIES  14  11  87 NW7       29.98R WCI   4
CROOKSTON      FLURRIES  16  10  79 N12       30.01R WCI   3
FOSSTON        FLURRIES  12  10  92 N3        29.94S
DETROIT LAKES  FLURRIES  18  14  86 N5        29.94R WCI  11
MOORHEAD       MIX PCPN  18  12  79 N10       29.99S WCI   6
PARK RAPIDS    CLOUDY    15  10  80 NE5       29.92R WCI   8
MAHNOMEN       CLOUDY    15  10  83 N8        29.94S WCI   3
$$
MNZ006-009>011-018-025>026-140400-
   North Central Minnesota

CITY           SKY/WX    TMP DP  RH WIND       PRES   REMARKS
BAUDETTE       CLOUDY     4   2  91 CALM      29.93S
FLAG ISLAND    CLOUDY     3   0  85 CALM      29.94R
INTL FALLS     CLOUDY    15  10  80 NW5       29.91S WCI   8
WASKISH        CLOUDY    12  10  92 CALM      29.93S
BIG FORK       CLOUDY    18  12  79 CALM      29.90S
LONGVILLE      CLOUDY    16  12  86 NE3       29.92R
GRAND RAPIDS   FLURRIES  17  13  84 N8        29.92R WCI   7
CRANE LAKE     CLOUDY    12  10  92 CALM      29.93R
ORR            CLOUDY    14  10  85 CALM      29.87S
COOK           CLOUDY    14  10  85 N3        29.90R
WALKER         FLURRIES  13  10  85 N6        29.93R WCI   4
$$
MNZ012-019>021-037-140400-
   Northeast Minnesota

CITY           SKY/WX    TMP DP  RH WIND       PRES   REMARKS
DULUTH         PTCLDY    13  11  92 N6        29.88R WCI   4
ELY            CLOUDY     9   7  92 CALM      29.89R
HIBBING        CLOUDY    15  11  83 NE6       29.89R WCI   6
EVELETH        CLOUDY    14   8  78 N3        29.90R
DULUTH HARBOR  CLOUDY    21  18  86 N13       29.93R WCI   9
TWO HARBORS    CLEAR      9   3  78 CALM      29.87R
SILVER BAY     CLEAR      3   1  92 CALM      29.87S
GRAND MARAIS     N/A     11   3  70 CALM      29.93R
G MARAIS ARPRT CLEAR      0  -6  78 NW5       29.82S WCI -10
$$
MNZ029>031-032-039>041-046>048-054>057-064-140400-
   West Central Minnesota

CITY           SKY/WX    TMP DP  RH WIND       PRES   REMARKS
FERGUS FALLS   CLOUDY    19  14  79 N7        29.99R WCI  10
WHEATON        CLOUDY    21  16  79 N10       30.00R WCI  10
MORRIS         CLOUDY    21  16  79 N13       29.95R WCI   9
ALEXANDRIA     CLOUDY    19  13  77 N8        29.93R WCI   9
ELBOW LAKE     CLOUDY    20  16  84 N7        29.96R WCI  11
WADENA         FLURRIES  16  12  86 N6        29.92S WCI   7
GLENWOOD       MOCLDY    19  16  86 N5        29.93R WCI  13
APPLETON       CLOUDY    23  16  74 N12       29.96R WCI  12
BENSON         CLOUDY    23  16  74 NE10      29.96R WCI  12
ORTONVILLE     CLOUDY    21  18  86 N16       29.96S WCI   7
MADISON        CLOUDY    27  21  80 N15       29.97R WCI  15
WILLMAR        CLOUDY    25  18  74 N8        29.95R WCI  16
$$
MNZ033>034-036-042>043-049>051-058-059-140400-
   Central Minnesota

CITY           SKY/WX    TMP DP  RH WIND       PRES   REMARKS
ST CLOUD       CLEAR     16  11  80 N6        29.92R WCI   7
SAUK CENTRE    MOCLDY    15  11  83 N6        29.94R WCI   7
PAYNESVILLE    CLEAR     16  13  89 CALM      29.93R
AITKIN         FLURRIES  16  12  86 NW5       29.90S WCI   9
PINE RIVER     FLURRIES  14  10  85 NE6       29.96R WCI   5
BRAINERD       CLOUDY    18  12  77 N8        29.92R WCI   8
STAPLES        CLOUDY    16  10  79 N6        29.93R WCI   7
LONG PRAIRIE   CLOUDY    16  12  86 NW5       29.93R WCI   9
LITTLE FALLS   CLEAR     14   9  79 CALM      29.93R
LITCHFIELD     CLEAR     18  14  86 N5        29.93R WCI  11
BUFFALO        CLEAR     18  13  81 N5        29.94R WCI  11
MAPLE LAKE     CLEAR     19  15  86 N7        29.93R WCI   9
HUTCHINSON     CLEAR     20  15  82 N8        29.92R WCI  10
$$
MNZ037-044-045-052-053-140400-
   East Central Minnesota

CITY           SKY/WX    TMP DP  RH WIND       PRES   REMARKS
PRINCETON      CLOUDY    19  16  86 N6        29.91F WCI  11
MORA           CLOUDY    19  14  79 NW7       29.93R WCI  10
CAMBRIDGE      FLURRIES  21  12  68 CALM      29.92R
RUSH CITY      CLOUDY    21  17  84 CALM      29.92R
MOOSE LAKE     CLOUDY    19  14  79 CALM      29.89S
HINCKLEY       CLOUDY    23  18  80 N8        29.91S WCI  14
CLOQUET        CLOUDY    16  12  86 NW7       29.89R WCI   6
MCGREGOR       CLOUDY    19  18  93 NW5       29.91R WCI  13
$$
MNZ071>073-080-081-089-090-097-098-140400-
   Southwest Minnesota

CITY           SKY/WX    TMP DP  RH WIND       PRES   REMARKS
MONTEVIDEO     CLOUDY    25  19  80 NE12      29.95R WCI  14
GRANITE FALLS  CLOUDY    26  19  74 N13       29.97R WCI  15
CANBY          CLOUDY    27  24  87 N12       29.97R WCI  17
MARSHALL       CLOUDY    25  21  85 N21       29.94R WCI  11
REDWOOD FALLS  CLOUDY    25  16  68 N8        29.94R WCI  16
OLIVIA         MOCLDY    25  19  80 N13       29.92S WCI  13
PIPESTONE      CLOUDY    27  23  86 N10G16    29.92R WCI  17
WINDOM           N/A     25  12  58 NW20      29.91R WCI  11
WORTHINGTON    CLOUDY    25  23  92 N18       29.92R WCI  11
JACKSON        CLOUDY    27  19  74 MISG      29.91R
TRACY          CLOUDY    27  21  80 N20G29    29.92R WCI  13
SLAYTON        CLOUDY    25  23  91 N15G25    29.92R WCI  13
$$
MNZ065>067-074>077-082>085-091>093-140400-
   South Central Minnesota

CITY           SKY/WX    TMP DP  RH WIND       PRES   REMARKS
MANKATO        CLEAR     21  17  84 N9        29.91R WCI  11
NEW ULM        CLEAR     21  16  79 N9        29.91S WCI  11
ST JAMES       MOCLDY    23  18  80 N10G17    29.92S WCI  12
FAIRMONT       CLOUDY    25  20  81 N16       29.90R WCI  12
GLENCOE        CLEAR     20  17  88 N7        29.92R WCI  11
FARIBAULT      CLEAR     21  16  79 N7        29.89S WCI  13
OWATONNA       PTCLDY    21  16  79 N12       29.87R WCI   9
WASECA         MOCLDY    21  18  86 N12       29.91R WCI   9
ALBERT LEA     CLOUDY    23  18  80 VRB14G21  29.87R WCI  11
$$
MNZ078>079-086>088-094>096-140400-
   Southeast Minnesota

CITY           SKY/WX    TMP DP  RH WIND       PRES   REMARKS
ROCHESTER      CLOUDY    22  18  85 N18       29.85R WCI   7
RED WING       CLEAR     19  10  68 N6        29.90R WCI  11
STANTON        CLEAR     22  16  79 N9        29.88S WCI  11
DODGE CENTER   CLOUDY    21  16  79 N15G23    29.85R WCI   8
WINONA           N/A     23  14  68 N6        29.89R WCI  16
AUSTIN         CLOUDY    23  16  74 N13G22    29.85R WCI  11
PRESTON        CLEAR     19  13  77 N10G18    29.84R WCI   8
$$
ABBREVIATIONS USED IN REMARKS
   TC - TEMPERATURES IN CELSIUS
  WCI - WIND CHILL INDEX
   HX - HEAT INDEX
  VSB - VISIBILITY
$$




USA.gov is the U.S. government's official web portal to all federal, state and local government web resources and services.